パンスターズ彗星

C/2018 A1 ( PanSTARRS )

English version
Home page
Updated on May 21, 2018

---------------------------------------------------------------------

・ プロフィール

発見日 2018年1月6日
発見光度 19.1等
発見者 Pan-STARRS 1 telescope (Haleakala)

・ 写真集

・ 軌道要素

Epoch 2017 Oct. 14.0 TT = JDT 2458040.5
T 2017 Oct. 20.42980 TT                                 MPCW
q   2.4193730            (2000.0)            P               Q
n   0.00772968     Peri.   96.38513     +0.13214614     -0.93842370
a  25.3334922      Node   336.62190     +0.21959276     +0.34175297
e   0.9044990      Incl.   53.56006     +0.96660044     +0.05065442
P 128
From 108 observations 2018 Jan. 6-Mar. 19, mean residual 0".4.

・ 光度変化

        m1 = 12.5 + 5 logΔ + 10.0 log r

---------------------------------------------------------------------

軌道要素はM.P.E.C. 2018-F152に掲載されたものです。
光度グラフはComet for Windowsで作成したものです。

---------------------------------------------------------------------

Copyright(C) Seiichi Yoshida (comet@aerith.net). All rights reserved.